Weather in Tuxtla Gutiérrez

Mexico     16°42′37″N   93°06′51″W
temp.,
°C
wind,
m/s
gust,
m/s
humid.,
%
clouds,
%
prec.,
mm/h
press.,
hPa
HPBL,
m
15 may, sat
sat1501:00+21nw128666 1.6 1016106
04:00+20nnw238790 0.0 1015106
07:00+19nnw128793 0.0 101686
10:00+25wnw226193 0.0 1015891
13:00+30w344466 0.0 10131917
16:00+27nw335968 1.3 1012799
19:00+25nw356671 2.1 1011339
22:00+22n127716 0.1 101493
16 may, sun
sun1601:00+21n227958 0.8 101450
04:00+21n128092 0.0 101369
07:00+20n1179100 0.0 101543
10:00+26ssw1157100 0.0 1015701
13:00+31sw2143100 0.0 10131480
16:00+32wsw1240100 0.6 10101974
19:00+26n2361100 1.3 1011139
22:00+25n1366100 0.4 1013108
17 may, mon
mon1701:00+22ene1280100 3.0 1014103
04:00+21e1183100 0.8 101387
07:00+21ese1288100 0.9 1014101
10:00+26s226294 0.1 1014686
13:00+31s224419 0.2 10121462
16:00+32ssw224072 0.4 10092314
19:00+22wnw1394100 23.1 1009164
22:00+22n2384100 18.9 1015120
18 may, tue
tue1801:00+21ene0183100 21.6 101531
04:00+20ese2385100 0.2 101397
07:00+20ese2487100 0.2 1014173
10:00+24s2373100 0.0 1014688
13:00+29s224960 0.0 10121189
16:00+31ssw124139 0.0 10091780
19:00+28wnw125371 0.0 100972
22:00+23nnw13750 0.3 1012102
19 may, wed
wed1901:00+21ne01850 1.4 101323
04:00+20se128881 0.2 101233
07:00+20ese23900 0.2 101295
10:00+25sse34620 0.0 1012747
13:00+30s23400 0.0 10101473
16:00+32ssw22320 0.0 10071915
19:00+27wsw245279 0.0 1008308
22:00+23ne11745 0.3 101239